Shannon, Ireland

10:19 PM IST on April 30, 2017 (GMT +0100)
Shannon

Weather History for EINN - July, 2012

Change the Weather History Date:

Saturday, July 28, 2012

  Actual Average Record
Temperature  
Mean Temperature 57 °F -  
Max Temperature 63 °F 67 °F 78 °F (2001)
Min Temperature 51 °F 53 °F 50 °F (2005)
Degree Days  
Heating Degree Days 8    
Growing Degree Days 7 (Base 50)    
Moisture  
Dew Point 49 °F    
Average Humidity 78    
Maximum Humidity 94    
Minimum Humidity 55    
Precipitation  
Precipitation 0.01 in 0.11 in - ()
Sea Level Pressure  
Sea Level Pressure 29.93 in    
Wind  
Wind Speed 10 mph ()    
Max Wind Speed 21 mph    
Max Gust Speed -    
Visibility 6.5 miles    
Events Rain    
Averages and records for this station are not official NWS values.
T = Trace of Precipitation, MM = Missing Value Source: Averaged Metar Reports

Daily Weather History Graph

Daily Weather History Graph

Search for Another Location

Airport or City:

Trip Planner

Search our weather history database for the weather conditions in past years. The results will help you decide how hot, cold, wet, or windy it might be!

Date:

Astronomy

Jul. 28, 2012 Rise Set
Actual Time 5:48 AM IST 9:34 PM IST
Civil Twilight 5:05 AM IST 10:17 PM IST
Nautical Twilight 4:04 AM IST 11:17 PM IST
Astronomical Twilight 2:16 AM IST 12:59 AM IST
Moon 5:31 PM IST (7/28) 12:54 AM IST (7/28)
Length of Visible Light 17h 12m
Length of Day
15h 45m
Waxing Gibbous, 73% of the Moon is Illuminated
Jul 28
Waxing Gibbous
Aug 2
Full
Aug 9
Last Quarter
Aug 17
New
Aug 24
First Quarter

Hourly Weather History & Observations

Time (IST) Temp. Dew Point Humidity Pressure Visibility Wind Dir Wind Speed Gust Speed Precip Events Conditions
12:00 AM 53.6 °F 50.0 °F 88% 30.01 in 6.2 mi WNW 4.6 mph - N/A   Mostly Cloudy
12:30 AM 53.6 °F 48.2 °F 82% 30.01 in 6.2 mi West 5.8 mph - N/A   Mostly Cloudy
1:00 AM 53 °F 49 °F 81% 30.01 in 12 mi West 6.7 mph - -   Mostly Cloudy
1:00 AM 51.8 °F 48.2 °F 88% 30.01 in 6.2 mi West 5.8 mph - N/A   Mostly Cloudy
1:30 AM 53.6 °F 50.0 °F 88% 30.01 in 6.2 mi West 6.9 mph - N/A   Mostly Cloudy
2:00 AM 53.6 °F 50.0 °F 88% 30.01 in 6.2 mi West 6.9 mph - N/A   Mostly Cloudy
2:30 AM 51.8 °F 48.2 °F 88% 29.98 in 6.2 mi West 8.1 mph - N/A   Mostly Cloudy
3:00 AM 53.6 °F 48.2 °F 82% 29.98 in 6.2 mi West 8.1 mph - N/A   Mostly Cloudy
3:30 AM 53.6 °F 48.2 °F 82% 29.98 in 6.2 mi West 9.2 mph - N/A   Mostly Cloudy
4:00 AM 53.6 °F 48.2 °F 82% 29.95 in 6.2 mi West 6.9 mph - N/A   Scattered Clouds
4:30 AM 51.8 °F 48.2 °F 88% 29.95 in 6.2 mi West 8.1 mph - N/A   Scattered Clouds
5:00 AM 51.8 °F 48.2 °F 88% 29.95 in 6.2 mi West 10.4 mph - N/A   Partly Cloudy
5:30 AM 51.8 °F 48.2 °F 88% 29.95 in 6.2 mi West 10.4 mph - N/A Rain Light Rain Showers
6:00 AM 53.6 °F 48.2 °F 82% 29.95 in 6.2 mi West 8.1 mph - N/A   Scattered Clouds
6:30 AM 51.8 °F 48.2 °F 88% 29.95 in 6.2 mi West 9.2 mph - N/A   Partly Cloudy
7:00 AM 53 °F 49 °F 83% 29.95 in 16 mi West 6.7 mph - - Rain Light Rain Showers
7:00 AM 53.6 °F 50.0 °F 88% 29.95 in 6.2 mi West 6.9 mph - N/A Rain Light Rain Showers
7:30 AM 53.6 °F 50.0 °F 88% 29.95 in 6.2 mi WSW 5.8 mph - N/A Rain Light Rain Showers
8:00 AM 53.6 °F 51.8 °F 94% 29.92 in 6.2 mi West 8.1 mph - N/A   Mostly Cloudy
8:30 AM 53.6 °F 50.0 °F 88% 29.92 in 6.2 mi West 9.2 mph - N/A   Mostly Cloudy
9:00 AM 55.4 °F 51.8 °F 88% 29.92 in 6.2 mi West 11.5 mph - N/A Rain Light Rain Showers
9:30 AM 57.2 °F 51.8 °F 82% 29.92 in 6.2 mi West 10.4 mph - N/A   Scattered Clouds
10:00 AM 57.2 °F 50.0 °F 77% 29.92 in 6.2 mi WNW 12.7 mph - N/A   Scattered Clouds
10:30 AM 59.0 °F 51.8 °F 77% 29.92 in 6.2 mi WNW 13.8 mph - N/A   Mostly Cloudy
11:00 AM 55.4 °F 51.8 °F 88% 29.92 in 6.2 mi WNW 13.8 mph - N/A   Mostly Cloudy
11:30 AM 59.0 °F 51.8 °F 77% 29.92 in 6.2 mi WNW 15.0 mph - N/A   Scattered Clouds
12:00 PM 60.8 °F 50.0 °F 68% 29.92 in 6.2 mi WNW 16.1 mph - N/A   Mostly Cloudy
12:30 PM 59.0 °F 50.0 °F 72% 29.92 in 6.2 mi WNW 15.0 mph - N/A   Partly Cloudy
1:00 PM 61 °F 49 °F 55% 29.91 in 25 mi West 15.7 mph - - Rain Light Rain Showers
1:00 PM 60.8 °F 48.2 °F 63% 29.89 in 6.2 mi West 16.1 mph - N/A   Scattered Clouds
1:30 PM 60.8 °F 48.2 °F 63% 29.89 in 6.2 mi West 18.4 mph - N/A   Mostly Cloudy
2:00 PM 60.8 °F 50.0 °F 68% 29.89 in 6.2 mi WNW 18.4 mph - N/A   Mostly Cloudy
2:30 PM 62.6 °F 48.2 °F 59% 29.89 in 6.2 mi WNW 18.4 mph - N/A   Scattered Clouds
3:00 PM 62.6 °F 48.2 °F 59% 29.89 in 6.2 mi WNW 20.7 mph - N/A   Scattered Clouds
3:30 PM 62.6 °F 50.0 °F 63% 29.89 in 6.2 mi West 18.4 mph - N/A   Scattered Clouds
4:00 PM 62.6 °F 48.2 °F 59% 29.89 in 6.2 mi West 19.6 mph - N/A   Scattered Clouds
4:30 PM 60.8 °F 48.2 °F 63% 29.89 in 6.2 mi WNW 17.3 mph - N/A   Scattered Clouds
5:00 PM 60.8 °F 50.0 °F 68% 29.89 in 6.2 mi West 19.6 mph - N/A   Scattered Clouds
5:30 PM 60.8 °F 50.0 °F 68% 29.89 in 6.2 mi WNW 19.6 mph - N/A   Scattered Clouds
6:00 PM 59.0 °F 50.0 °F 72% 29.89 in 6.2 mi WNW 19.6 mph - N/A   Scattered Clouds
6:30 PM 59.0 °F 50.0 °F 72% 29.89 in 6.2 mi West 17.3 mph - N/A   Scattered Clouds
7:00 PM 58 °F 49 °F 65% 29.90 in 31 mi West 17.9 mph - -   Partly Cloudy
7:00 PM 59.0 °F 50.0 °F 72% - 6.2 mi West 18.4 mph - N/A   Scattered Clouds
7:30 PM 57.2 °F 50.0 °F 77% 29.89 in 6.2 mi WNW 15.0 mph - N/A   Mostly Cloudy
8:00 PM 55.4 °F 50.0 °F 82% 29.89 in 6.2 mi West 12.7 mph - N/A   Mostly Cloudy
8:30 PM 55.4 °F 50.0 °F 82% 29.89 in 6.2 mi WNW 12.7 mph - N/A   Mostly Cloudy
9:00 PM 55.4 °F 48.2 °F 77% 29.89 in 6.2 mi West 12.7 mph - N/A   Mostly Cloudy
9:30 PM 55.4 °F 50.0 °F 82% 29.89 in 6.2 mi West 10.4 mph - N/A   Mostly Cloudy
10:00 PM 55.4 °F 48.2 °F 77% 29.89 in 6.2 mi WNW 15.0 mph - N/A   Mostly Cloudy
10:30 PM 53.6 °F 48.2 °F 82% 29.89 in 6.2 mi WNW 9.2 mph - N/A   Mostly Cloudy
11:00 PM 53.6 °F 46.4 °F 77% 29.92 in 6.2 mi WNW 9.2 mph - N/A   Partly Cloudy
11:30 PM 51.8 °F 44.6 °F 76% 29.92 in 6.2 mi West 6.9 mph - N/A   Partly Cloudy